N5822L KLAN-KARB

Flight info

Callsign N5822L
Flight time 0h 23m
Altitude 0
Route VFR
Aircraft S22T/L-VGD/C

Departure

Time 2026-04-25 16:32
Airport Capital Region International Airport (KLAN)

Arrival

Time 2026-04-25 16:55
Airport Ann Arbor Municipal Airport (KARB)
Time Latitude Longitude Altitude Speed Heading
2026-04-25 16:20 42.77569 -84.59116 847 ft 0 kts 180°
2026-04-25 16:25 42.77570 -84.59119 847 ft 0 kts
2026-04-25 16:25 42.77573 -84.59119 847 ft 2 kts 358°
2026-04-25 16:25 42.77609 -84.59117 847 ft 0 kts 43°
2026-04-25 16:25 42.77622 -84.59099 846 ft 6 kts 58°
2026-04-25 16:26 42.77626 -84.59021 846 ft 10 kts 91°
2026-04-25 16:26 42.77649 -84.58937 846 ft 9 kts
2026-04-25 16:26 42.77692 -84.58907 846 ft 7 kts 83°
2026-04-25 16:26 42.77693 -84.58782 846 ft 11 kts 89°
2026-04-25 16:27 42.77692 -84.58706 846 ft 12 kts 91°
2026-04-25 16:27 42.77692 -84.58583 846 ft 13 kts 88°
2026-04-25 16:27 42.77693 -84.58452 845 ft 13 kts 95°
2026-04-25 16:27 42.77689 -84.58308 843 ft 15 kts 91°
2026-04-25 16:28 42.77687 -84.58166 843 ft 15 kts 87°
2026-04-25 16:28 42.77685 -84.58015 840 ft 16 kts 86°
2026-04-25 16:28 42.77684 -84.57867 840 ft 15 kts 90°
2026-04-25 16:28 42.77684 -84.57723 840 ft 14 kts 96°
2026-04-25 16:29 42.77683 -84.57584 840 ft 14 kts 95°
2026-04-25 16:29 42.77683 -84.57444 840 ft 14 kts 92°
2026-04-25 16:29 42.77680 -84.57304 840 ft 14 kts 82°
2026-04-25 16:29 42.77679 -84.57167 840 ft 14 kts 93°
2026-04-25 16:30 42.77685 -84.57023 840 ft 14 kts 77°
2026-04-25 16:30 42.77712 -84.56962 840 ft 0 kts 20°
2026-04-25 16:30 42.77713 -84.56961 840 ft 1 kts 13°
2026-04-25 16:31 42.77785 -84.56964 840 ft 12 kts 325°
2026-04-25 16:31 42.77801 -84.57010 840 ft 1 kts 270°
2026-04-25 16:31 42.77803 -84.57222 840 ft 59 kts 270°
2026-04-25 16:31 42.77813 -84.57996 985 ft 95 kts 276°
2026-04-25 16:32 42.77776 -84.58939 1325 ft 107 kts 260°
2026-04-25 16:32 42.77339 -84.59844 1618 ft 124 kts 226°
2026-04-25 16:32 42.76483 -84.60280 1845 ft 143 kts 176°
2026-04-25 16:32 42.75576 -84.59583 1907 ft 159 kts 127°
2026-04-25 16:33 42.74796 -84.58406 1965 ft 171 kts 128°
2026-04-25 16:33 42.73967 -84.57192 2027 ft 178 kts 127°
2026-04-25 16:33 42.73440 -84.55678 1982 ft 181 kts 98°
2026-04-25 16:33 42.72858 -84.54127 1949 ft 190 kts 128°
2026-04-25 16:34 42.71933 -84.52861 1929 ft 181 kts 135°
2026-04-25 16:34 42.70929 -84.51740 1889 ft 175 kts 137°
2026-04-25 16:34 42.69926 -84.50665 1860 ft 170 kts 140°
2026-04-25 16:34 42.68906 -84.49775 1876 ft 166 kts 147°
2026-04-25 16:35 42.67809 -84.48957 1882 ft 164 kts 149°
2026-04-25 16:35 42.66790 -84.48186 1846 ft 164 kts 148°
2026-04-25 16:35 42.65795 -84.47323 1821 ft 164 kts 144°
2026-04-25 16:35 42.64845 -84.46469 1819 ft 163 kts 144°
2026-04-25 16:36 42.63883 -84.45636 1794 ft 163 kts 146°
2026-04-25 16:36 42.63244 -84.45094 1723 ft 167 kts 147°
2026-04-25 16:36 42.61967 -84.43996 1776 ft 161 kts 144°
2026-04-25 16:36 42.60999 -84.43163 1696 ft 165 kts 146°
2026-04-25 16:37 42.60021 -84.42360 1712 ft 162 kts 148°
2026-04-25 16:37 42.59048 -84.41615 1759 ft 159 kts 149°
2026-04-25 16:37 42.58168 -84.40726 1769 ft 157 kts 131°
2026-04-25 16:37 42.57386 -84.39687 1817 ft 154 kts 131°
2026-04-25 16:38 42.56636 -84.38557 1848 ft 153 kts 126°
2026-04-25 16:38 42.55922 -84.37326 1873 ft 153 kts 123°
2026-04-25 16:38 42.55244 -84.36119 1902 ft 153 kts 124°
2026-04-25 16:38 42.54573 -84.34995 1933 ft 152 kts 124°
2026-04-25 16:39 42.53873 -84.33783 1949 ft 154 kts 124°
2026-04-25 16:39 42.53223 -84.32646 1971 ft 154 kts 124°
2026-04-25 16:39 42.52553 -84.31484 2004 ft 153 kts 125°
2026-04-25 16:39 42.51769 -84.30326 1991 ft 155 kts 130°
2026-04-25 16:40 42.51015 -84.29295 2033 ft 154 kts 131°
2026-04-25 16:40 42.50231 -84.28269 2020 ft 157 kts 134°
2026-04-25 16:40 42.49409 -84.27286 1898 ft 166 kts 137°
2026-04-25 16:40 42.48519 -84.26236 1805 ft 167 kts 138°
2026-04-25 16:41 42.47366 -84.24869 1783 ft 164 kts 136°
2026-04-25 16:41 42.47073 -84.24515 1783 ft 163 kts 136°
2026-04-25 16:41 42.45186 -84.22055 1754 ft 162 kts 135°
2026-04-25 16:42 42.44364 -84.21036 1758 ft 160 kts 134°
2026-04-25 16:42 42.43541 -84.19997 1729 ft 161 kts 135°
2026-04-25 16:42 42.42686 -84.18901 1725 ft 160 kts 133°
2026-04-25 16:42 42.41784 -84.17702 1748 ft 159 kts 133°
2026-04-25 16:43 42.40899 -84.16594 1730 ft 160 kts 137°
2026-04-25 16:43 42.39954 -84.15451 1740 ft 159 kts 135°
2026-04-25 16:43 42.39048 -84.14291 1685 ft 162 kts 134°
2026-04-25 16:43 42.38161 -84.13095 1650 ft 162 kts 131°
2026-04-25 16:44 42.37342 -84.11854 1584 ft 164 kts 128°
2026-04-25 16:44 42.36589 -84.10572 1593 ft 159 kts 122°
2026-04-25 16:44 42.35869 -84.09340 1624 ft 157 kts 124°
2026-04-25 16:44 42.35157 -84.08154 1614 ft 158 kts 125°
2026-04-25 16:45 42.34410 -84.06902 1610 ft 158 kts 124°
2026-04-25 16:45 42.33729 -84.05570 1626 ft 156 kts 118°
2026-04-25 16:45 42.33078 -84.04273 1742 ft 149 kts 121°
2026-04-25 16:45 42.32422 -84.03029 1703 ft 152 kts 120°
2026-04-25 16:46 42.31817 -84.01701 1643 ft 152 kts 117°
2026-04-25 16:46 42.31207 -84.00424 1566 ft 153 kts 120°
2026-04-25 16:46 42.30559 -83.99139 1610 ft 143 kts 118°
2026-04-25 16:46 42.30162 -83.98310 1568 ft 144 kts 118°
2026-04-25 16:47 42.29539 -83.96630 1474 ft 145 kts 111°
2026-04-25 16:47 42.29115 -83.95380 1377 ft 146 kts 107°
2026-04-25 16:47 42.28709 -83.94150 1492 ft 134 kts 110°
2026-04-25 16:47 42.28291 -83.92941 1544 ft 130 kts 112°
2026-04-25 16:48 42.27900 -83.91755 1465 ft 131 kts 108°
2026-04-25 16:48 42.27527 -83.90610 1484 ft 123 kts 105°
2026-04-25 16:48 42.27205 -83.89521 1614 ft 116 kts 104°
2026-04-25 16:48 42.26880 -83.88427 1638 ft 127 kts 104°
2026-04-25 16:49 42.26541 -83.87230 1718 ft 129 kts 105°
2026-04-25 16:49 42.26140 -83.86045 1792 ft 133 kts 109°
2026-04-25 16:49 42.25715 -83.84813 1792 ft 139 kts 105°
2026-04-25 16:49 42.25330 -83.83494 1769 ft 145 kts 105°
2026-04-25 16:50 42.24972 -83.82162 1677 ft 144 kts 103°
2026-04-25 16:50 42.24558 -83.80859 1659 ft 142 kts 107°
2026-04-25 16:50 42.24076 -83.79127 1664 ft 137 kts 105°
2026-04-25 16:50 42.23824 -83.78320 1609 ft 136 kts 110°
2026-04-25 16:51 42.23370 -83.77164 1523 ft 135 kts 113°
2026-04-25 16:51 42.22890 -83.76040 1446 ft 130 kts 115°
2026-04-25 16:51 42.22422 -83.74972 1328 ft 126 kts 116°
2026-04-25 16:51 42.22115 -83.74305 1310 ft 117 kts 116°
2026-04-25 16:52 42.21549 -83.73106 1336 ft 104 kts 116°
2026-04-25 16:52 42.21029 -83.72307 1323 ft 103 kts 148°
2026-04-25 16:52 42.20277 -83.72263 1330 ft 107 kts 212°
2026-04-25 16:52 42.19874 -83.73090 1307 ft 104 kts 272°
2026-04-25 16:53 42.20738 -83.74599 1175 ft 102 kts 356°
2026-04-25 16:53 42.21197 -83.73930 1137 ft 102 kts 57°
2026-04-25 16:53 42.21483 -83.73145 1332 ft 94 kts 56°
2026-04-25 16:54 42.21733 -83.72437 1289 ft 81 kts 56°
2026-04-25 16:54 42.22170 -83.72049 1222 ft 78 kts 358°
2026-04-25 16:54 42.22705 -83.72262 1181 ft 77 kts 347°
2026-04-25 16:54 42.23105 -83.72678 1143 ft 81 kts 300°
2026-04-25 16:55 42.22896 -83.73406 1013 ft 95 kts 225°
2026-04-25 16:55 42.22509 -83.74090 832 ft 82 kts 236°
2026-04-25 16:55 42.22266 -83.74566 828 ft 43 kts 242°
2026-04-25 16:55 42.22114 -83.74840 829 ft 30 kts 236°
2026-04-25 16:56 42.22036 -83.75004 830 ft 6 kts 282°
2026-04-25 16:56 42.22075 -83.75047 831 ft 4 kts
2026-04-25 16:56 42.22086 -83.75043 831 ft 0 kts 15°
2026-04-25 16:56 42.22122 -83.74990 830 ft 8 kts 62°
2026-04-25 16:57 42.22155 -83.74927 830 ft 11 kts 56°
2026-04-25 16:57 42.22192 -83.74856 831 ft 15 kts 59°
2026-04-25 16:57 42.22270 -83.74707 830 ft 12 kts 60°
2026-04-25 16:57 42.22319 -83.74617 829 ft 10 kts 57°
2026-04-25 16:58 42.22370 -83.74554 828 ft 10 kts 357°
2026-04-25 16:58 42.22446 -83.74559 829 ft 10 kts
2026-04-25 16:58 42.22498 -83.74523 830 ft 7 kts 24°
2026-04-25 16:58 42.22509 -83.74528 830 ft 0 kts 266°